When you browse on this site, cookies collect data to enhance your experience and personalize the content and advertising you see.
Visit our Privacy Policy to learn more. By continuing to use the site, you agree to this use of cookies and data.
  • In Österreich
  • Länderverzeichnis
  • Für 7 Tage
  • Wassertemperatur
  • Satellitenkarten
  • Wetterkarte
  • News
  • Widgets
  • user-avatar
    Anmelden

    Stündliche Wetter Sungurlu

    Heute, 19 Januar, Samstag

    Zeit Temperatur Niederschläge Wind Luftdruck Luftfeuchtigkeit
    00:00 -3°C° 0 mm 2 m/S 699 mmHg 79%
    01:00 -3°C° 0 mm 2 m/S 699 mmHg 77%
    02:00 -2°C° 0 mm 1 m/S 699 mmHg 78%
    03:00 -2°C° 0 mm 1 m/S 699 mmHg 76%
    04:00 -2°C° 0 mm 1 m/S 699 mmHg 74%
    05:00 -4°C° 0 mm 2 m/S 699 mmHg 73%
    06:00 -4°C° 0 mm 2 m/S 699 mmHg 71%
    07:00 -3°C° 0 mm 2 m/S 699 mmHg 70%
    08:00 -3°C° 0 mm 2 m/S 699 mmHg 69%
    09:00 -2°C° 0 mm 2 m/S 699 mmHg 65%
    10:00 -1°C° 0 mm 2 m/S 699 mmHg 62%
    11:00 +2°C° 0 mm 2 m/S 699 mmHg 59%
    12:00 +2°C° 0 mm 2 m/S 699 mmHg 60%
    13:00 +3°C° 0 mm 2 m/S 699 mmHg 61%
    14:00 +5°C° 0 mm 1 m/S 699 mmHg 63%
    15:00 +4°C° 0 mm 1 m/S 699 mmHg 66%
    16:00 +3°C° 0 mm 1 m/S 699 mmHg 70%
    17:00 +2°C° 0 mm 1 m/S 699 mmHg 74%
    18:00 +1°C° 0 mm 1 m/S 699 mmHg 75%
    19:00 +1°C° 0 mm 1 m/S 699 mmHg 76%
    20:00 +1°C° 0 mm 1 m/S 699 mmHg 77%
    21:00 +1°C° 0 mm 1 m/S 699 mmHg 77%
    22:00 0°C° 0 mm 1 m/S 699 mmHg 77%
    23:00 0°C° 0 mm 1 m/S 699 mmHg 78%

    Morgen, 20 Januar, Sonntag

    Zeit Temperatur Niederschläge Wind Luftdruck Luftfeuchtigkeit
    00:00 0°C° 0 mm 1 m/S 699 mmHg 78%
    01:00 0°C° 0 mm 1 m/S 699 mmHg 78%
    02:00 0°C° 0 mm 1 m/S 700 mmHg 77%
    03:00 0°C° 0 mm 1 m/S 699 mmHg 77%
    04:00 0°C° 0 mm 1 m/S 699 mmHg 76%
    05:00 0°C° 0 mm 1 m/S 699 mmHg 76%
    06:00 0°C° 0 mm 1 m/S 699 mmHg 75%
    07:00 0°C° 0 mm 1 m/S 699 mmHg 73%
    08:00 0°C° 0 mm 1 m/S 699 mmHg 72%
    09:00 +1°C° 0 mm 1 m/S 699 mmHg 69%
    10:00 +3°C° 0 mm 1 m/S 699 mmHg 65%
    11:00 +4°C° 0 mm 1 m/S 699 mmHg 61%
    12:00 +4°C° 0 mm 1 m/S 698 mmHg 61%
    13:00 +5°C° 0 mm 1 m/S 698 mmHg 60%
    14:00 +5°C° 0 mm 1 m/S 697 mmHg 60%
    15:00 +4°C° 0 mm 1 m/S 697 mmHg 63%
    16:00 +3°C° 0 mm 1 m/S 697 mmHg 67%
    17:00 +2°C° 0 mm 1 m/S 697 mmHg 70%
    18:00 +2°C° 0 mm 1 m/S 697 mmHg 70%
    19:00 +2°C° 0 mm 1 m/S 697 mmHg 70%
    20:00 +1°C° 0 mm 1 m/S 697 mmHg 69%
    21:00 +1°C° 0 mm 1 m/S 697 mmHg 68%
    22:00 +1°C° 0 mm 1 m/S 697 mmHg 67%
    23:00 +1°C° 0 mm 1 m/S 697 mmHg 66%

    übermorgen, 21 Januar, Montag

    Zeit Temperatur Niederschläge Wind Luftdruck Luftfeuchtigkeit
    00:00 +1°C° 0 mm 1 m/S 697 mmHg 66%
    01:00 +1°C° 0 mm 1 m/S 697 mmHg 66%
    02:00 +1°C° 0 mm 1 m/S 697 mmHg 65%
    03:00 0°C° 0 mm 1 m/S 697 mmHg 66%
    04:00 0°C° 0 mm 1 m/S 696 mmHg 67%
    05:00 0°C° 0 mm 1 m/S 696 mmHg 67%
    06:00 0°C° 0 mm 1 m/S 696 mmHg 68%
    07:00 +1°C° 0 mm 1 m/S 697 mmHg 68%
    08:00 +1°C° 0 mm 1 m/S 697 mmHg 68%
    09:00 +2°C° 0 mm 1 m/S 697 mmHg 65%
    10:00 +3°C° 0 mm 1 m/S 697 mmHg 63%
    11:00 +5°C° 0 mm 1 m/S 696 mmHg 60%
    12:00 +5°C° 0 mm 1 m/S 696 mmHg 60%
    13:00 +6°C° 0 mm 1 m/S 696 mmHg 60%
    14:00 +6°C° 0 mm 1 m/S 695 mmHg 60%
    15:00 +5°C° 0 mm 1 m/S 695 mmHg 64%
    16:00 +4°C° 0 mm 1 m/S 695 mmHg 68%
    17:00 +3°C° 0 mm 1 m/S 696 mmHg 71%
    18:00 +3°C° 0.1 mm 1 m/S 696 mmHg 72%
    19:00 +3°C° 0.1 mm 1 m/S 696 mmHg 73%
    20:00 +3°C° 0.1 mm 1 m/S 696 mmHg 74%
    21:00 +3°C° 0.2 mm 1 m/S 696 mmHg 77%
    22:00 +3°C° 0.2 mm 1 m/S 696 mmHg 81%
    23:00 +3°C° 0.2 mm 1 m/S 697 mmHg 84%

    22 Januar, Dienstag

    Zeit Temperatur Niederschläge Wind Luftdruck Luftfeuchtigkeit
    00:00 +2°C° 0.2 mm 1 m/S 697 mmHg 86%
    01:00 +2°C° 0.2 mm 1 m/S 697 mmHg 88%
    02:00 +2°C° 0.2 mm 1 m/S 697 mmHg 90%
    03:00 +2°C° 0 mm 1 m/S 697 mmHg 91%
    04:00 +2°C° 0 mm 1 m/S 696 mmHg 91%
    05:00 +2°C° 0 mm 1 m/S 696 mmHg 92%
    06:00 +2°C° 0 mm 1 m/S 696 mmHg 92%
    07:00 +3°C° 0 mm 1 m/S 697 mmHg 91%
    08:00 +3°C° 0 mm 1 m/S 697 mmHg 91%
    09:00 +3°C° 0 mm 1 m/S 697 mmHg 89%
    10:00 +4°C° 0 mm 1 m/S 696 mmHg 87%
    11:00 +5°C° 0 mm 1 m/S 696 mmHg 84%
    12:00 +6°C° 0 mm 1 m/S 696 mmHg 82%
    13:00 +6°C° 0 mm 1 m/S 695 mmHg 80%
    14:00 +7°C° 0 mm 1 m/S 695 mmHg 78%
    15:00 +6°C° 0 mm 1 m/S 695 mmHg 82%
    16:00 +5°C° 0 mm 1 m/S 694 mmHg 85%
    17:00 +5°C° 0 mm 1 m/S 694 mmHg 88%
    18:00 +4°C° 0 mm 1 m/S 694 mmHg 89%
    19:00 +4°C° 0 mm 1 m/S 694 mmHg 89%
    20:00 +3°C° 0 mm 1 m/S 694 mmHg 90%
    21:00 +3°C° 0 mm 1 m/S 694 mmHg 89%
    22:00 +3°C° 0 mm 1 m/S 694 mmHg 89%
    23:00 +3°C° 0 mm 1 m/S 694 mmHg 88%

    23 Januar, Mittwoch

    Zeit Temperatur Niederschläge Wind Luftdruck Luftfeuchtigkeit
    00:00 +1°C° 0 mm 2 m/S 694 mmHg 88%
    01:00 +1°C° 0 mm 2 m/S 694 mmHg 87%
    02:00 +1°C° 0 mm 2 m/S 693 mmHg 86%
    03:00 +1°C° 0 mm 2 m/S 693 mmHg 87%
    04:00 +1°C° 0 mm 2 m/S 693 mmHg 87%
    05:00 +1°C° 0 mm 2 m/S 693 mmHg 87%
    06:00 +1°C° 0 mm 2 m/S 693 mmHg 87%
    07:00 +1°C° 0 mm 2 m/S 693 mmHg 87%
    08:00 +2°C° 0 mm 2 m/S 693 mmHg 87%
    09:00 +3°C° 0 mm 2 m/S 693 mmHg 82%
    10:00 +4°C° 0 mm 2 m/S 693 mmHg 77%
    11:00 +5°C° 0 mm 3 m/S 693 mmHg 72%
    12:00 +5°C° 0 mm 3 m/S 693 mmHg 71%
    13:00 +7°C° 0 mm 3 m/S 693 mmHg 69%
    14:00 +7°C° 0 mm 3 m/S 693 mmHg 68%
    15:00 +5°C° 0 mm 3 m/S 692 mmHg 72%
    16:00 +5°C° 0 mm 2 m/S 692 mmHg 77%
    17:00 +4°C° 0 mm 2 m/S 692 mmHg 81%
    18:00 +4°C° 0 mm 2 m/S 692 mmHg 82%
    19:00 +3°C° 0 mm 2 m/S 693 mmHg 83%
    20:00 +3°C° 0 mm 2 m/S 693 mmHg 83%
    21:00 +3°C° 0 mm 2 m/S 693 mmHg 83%
    22:00 +3°C° 0 mm 2 m/S 693 mmHg 83%
    23:00 +2°C° 0 mm 2 m/S 693 mmHg 83%

    24 Januar, Donnerstag

    Zeit Temperatur Niederschläge Wind Luftdruck Luftfeuchtigkeit
    00:00 +2°C° 0 mm 2 m/S 692 mmHg 82%
    01:00 +2°C° 0 mm 2 m/S 692 mmHg 82%
    02:00 +2°C° 0 mm 2 m/S 692 mmHg 81%
    03:00 +2°C° 0.1 mm 2 m/S 692 mmHg 80%
    04:00 +2°C° 0.1 mm 2 m/S 691 mmHg 80%
    05:00 +3°C° 0.1 mm 1 m/S 691 mmHg 79%
    06:00 +2°C° 0 mm 2 m/S 691 mmHg 78%
    07:00 +3°C° 0 mm 2 m/S 691 mmHg 78%
    08:00 +3°C° 0 mm 2 m/S 691 mmHg 77%
    09:00 +4°C° 0 mm 2 m/S 691 mmHg 72%
    10:00 +5°C° 0 mm 2 m/S 691 mmHg 66%
    11:00 +6°C° 0 mm 2 m/S 690 mmHg 61%
    12:00 +7°C° 0 mm 2 m/S 690 mmHg 59%
    13:00 +8°C° 0 mm 2 m/S 689 mmHg 58%
    14:00 +8°C° 0 mm 2 m/S 689 mmHg 56%
    15:00 +7°C° 0 mm 2 m/S 689 mmHg 62%
    16:00 +6°C° 0 mm 2 m/S 688 mmHg 67%
    17:00 +6°C° 0 mm 1 m/S 688 mmHg 72%
    18:00 +5°C° 0 mm 2 m/S 688 mmHg 73%
    19:00 +4°C° 0 mm 2 m/S 688 mmHg 74%
    20:00 +4°C° 0 mm 2 m/S 688 mmHg 75%
    21:00 +4°C° 0 mm 2 m/S 688 mmHg 76%
    22:00 +4°C° 0 mm 2 m/S 688 mmHg 76%
    23:00 +4°C° 0 mm 2 m/S 688 mmHg 76%
    Mehr zeigen